User: anonymous   Login
Location: Caltech
(34.1382°N, 118.1253°W)
Time: 13:37:33
(UTC-07:00)
Language:

CZ-4B DEB - Orbit

View from above orbital plane
View from above orbital plane
View from above satellite
View from above satellite

Ground track
Ground track

The orbit data is extracted from the following two-line orbital elements,

1 27433U 02024D   16274.94387939 +.00000110 +00000-0 +84171-4 0  9996
2 27433 098.9334 242.4623 0015722 063.4661 296.8120 14.12106976740593
Epoch (UTC): 30 September 2016 22:39:11
Eccentricity: 0.0015722
inclination: 98.9334°
perigee height: 841 km
apogee height: 863 km
right ascension of ascending node: 242.4623°
argument of perigee: 63.4661°
revolutions per day: 14.12106976
mean anomaly at epoch: 296.8120°
orbit number at epoch: 74059

The dashed part of the orbit path shows where the satellite is in the earth's shadow,  

DLR